Location: Kikino
(54.4440°N, 112.0940°W)
Time: 09:44:28
(UTC+00:00)

Vanguard 3 - Pass Details

Date: 25 May 2024
Orbit: 509 x 3231 km, 33.3° (Epoch: 16 June)

Event Time Altitude Azimuth Distance (km) Brightness Sun altitude
Rises 05:20:19 0° 253° (WSW) 4,954 11.3 -9.9°
Reaches altitude 10° 05:23:56 10° 241° (WSW) 4,353 10.9 -10.1°
Maximum altitude 05:33:29 26° 192° (SSW) 4,057 10.3 -10.8°
Enters shadow 05:44:50 13° 149° (SSE) 5,678 10.8 -11.5°
